Miscellaneous Local Product
Issued by NWS Hastings, NE

Home | Current Version | Previous Version | Graphics & Text | Print | Product List | Glossary On
Versions: 1 2 3 4 5 6 7 8 9 10 11 12 13 14 15 16 17 18 19 20 21 22 23 24 25 26 27 28 29 30 31 32 33 34 35 36 37 38 39 40 41 42 43 44 45 46 47 48 49 50
845
AXUS43 KGID 221502
MISGRI

GID CWA HOURLY WEATHER ROUNDUP
NATIONAL WEATHER SERVICE HASTINGS NE
1000 AM CDT SAT APR 22 2017

NOTE: "FAIR" INDICATES FEW OR NO CLOUDS BELOW 12,000 FEET WITH NO
SIGNIFICANT WEATHER AND/OR OBSTRUCTIONS TO VISIBILITY.

...SOUTH CENTRAL NEBRASKA...

CITY           SKY/WX    TMP DP  RH WIND       PRES   REMARKS
GRAND ISLAND   SUNNY     54  37  52 NE8       30.29S
HASTINGS       SUNNY     54  36  50 NE9       30.29S
KEARNEY        CLOUDY    52  34  50 NE10      30.30S
ORD            SUNNY     53  38  56 VRB3      30.29S
YORK           MOSUNNY   54  39  58 NE9       30.28S
AURORA         MOSUNNY   55  36  50 NE9       30.28S
LEXINGTON      CLOUDY    50  39  67 NW6       30.31S
HOLDREGE       SUNNY     50  36  57 NE7       30.30R
HEBRON         SUNNY     54  37  51 NE12      30.26S

...NEBRASKA PANHANDLE...

CITY           SKY/WX    TMP DP  RH WIND       PRES   REMARKS
CHADRON        SUNNY     48  39  71 W3        30.28S
ALLIANCE       SUNNY     46  37  71 S7        30.29S
SCOTTSBLUFF    SUNNY     46  38  73 SE6       30.29S
SIDNEY         MOSUNNY   45  39  79 MISG      30.30S

...WESTERN AND NORTH CENTRAL NEBRASKA...

CITY           SKY/WX    TMP DP  RH WIND       PRES   REMARKS
VALENTINE      SUNNY     52  37  56 SW8       30.30S
AINSWORTH      SUNNY     51  42  71 NW3       30.30S
ONEILL         SUNNY     55  37  49 CALM      30.30S
BROKEN BOW     SUNNY     52  38  58 E6        30.30R
IMPERIAL       SUNNY     49  37  63 N3        30.31S
NORTH PLATTE   MOSUNNY   49  39  68 W3        30.32R
MCCOOK         PTSUNNY   49  39  68 E6        30.31S

...EASTERN NEBRASKA...

CITY           SKY/WX    TMP DP  RH WIND       PRES   REMARKS
NORFOLK        SUNNY     55  38  52 VRB6      30.28R
SO SIOUX CITY  CLOUDY    54  43  66 N9        30.28S
TEKAMAH        CLOUDY    52  41  66 N9        30.27S
COLUMBUS       MOSUNNY   54  39  58 N8        30.29R
ALBION         SUNNY     55  34  45 NE6       30.29S
OMAHA EPPLEY   CLOUDY    52  41  66 N9        30.25S
OFFUTT AFB     PTSUNNY   55  39  56 N8        30.24S
MILLARD        MOSUNNY   56  39  51 E5        30.26S
LINCOLN        MOSUNNY   58  39  49 NE10      30.27S
NEBRASKA CITY  MOSUNNY   52  35  52 NE9       30.24S
BEATRICE       PTSUNNY   55  39  55 N9        30.25R
FALLS CITY     MOSUNNY   53  40  61 N9        30.21S

...NORTHERN KANSAS...

CITY           SKY/WX    TMP DP  RH WIND       PRES   REMARKS
GOODLAND       CLOUDY    45  37  73 N7        30.30R
HILL CITY      MOSUNNY   50  41  71 N10       30.30R
NORTON         SUNNY     48  36  61 N6        30.29S
PHILLIPSBURG   SUNNY     52  41  66 N7        30.29S
SMITH CENTER   SUNNY     50  39  66 NE8       30.28S
HAYS           CLOUDY    49  40  71 NE13      30.27R
RUSSELL        CLOUDY    50  41  71 NE15      30.24R
CONCORDIA      PTSUNNY   52  42  69 N8        30.25R
SALINA         CLOUDY    55  39  54 N13       30.23R
TOPEKA         CLOUDY    55  42  61 NE17G23   30.18S



USA.gov is the U.S. government's official web portal to all federal, state and local government web resources and services.